When you browse on this site, cookies collect data to enhance your experience and personalize the content and advertising you see.
Visit our Privacy Policy to learn more. By continuing to use the site, you agree to this use of cookies and data.
  • In Spain
  • List of Countries
  • For 7 days
  • Water Temperature
  • Weather Map
  • Weather Widgets
  • user-avatar
    Login

    Hourly Weather Harare

    Today, 17 February, Monday

    Time Temperature Precipitation Wind Pressure Humidity
    00:00 +19°C° 0.6 mm 3 mps 638 mmHg 94%
    01:00 +19°C° 0.6 mm 3 mps 638 mmHg 95%
    02:00 +18°C° 0 mm 2 mps 638 mmHg 96%
    03:00 +18°C° 0.2 mm 2 mps 638 mmHg 96%
    04:00 +18°C° 0.2 mm 2 mps 638 mmHg 96%
    05:00 +18°C° 0.2 mm 2 mps 638 mmHg 95%
    06:00 +19°C° 0 mm 2 mps 639 mmHg 93%
    07:00 +19°C° 0 mm 2 mps 639 mmHg 91%
    08:00 +20°C° 0 mm 2 mps 640 mmHg 89%
    09:00 +23°C° 0.1 mm 2 mps 640 mmHg 82%
    10:00 +24°C° 0.1 mm 2 mps 640 mmHg 75%
    11:00 +26°C° 0.1 mm 2 mps 640 mmHg 69%
    12:00 +26°C° 0.8 mm 2 mps 640 mmHg 67%
    13:00 +26°C° 0.8 mm 2 mps 639 mmHg 66%
    14:00 +27°C° 0 mm 2 mps 639 mmHg 62%
    15:00 +26°C° 0.7 mm 2 mps 639 mmHg 65%
    16:00 +26°C° 0.7 mm 1 mps 638 mmHg 68%
    17:00 +25°C° 0.7 mm 1 mps 638 mmHg 71%
    18:00 +24°C° 1 mm 1 mps 638 mmHg 77%
    19:00 +22°C° 1 mm 1 mps 638 mmHg 82%
    20:00 +20°C° 1 mm 1 mps 638 mmHg 87%
    21:00 +20°C° 0 mm 1 mps 638 mmHg 89%
    22:00 +20°C° 0 mm 1 mps 638 mmHg 90%
    23:00 +20°C° 0 mm 1 mps 638 mmHg 91%

    Tomorrow, 18 February, Tuesday

    Time Temperature Precipitation Wind Pressure Humidity
    00:00 +19°C° 0 mm 1 mps 638 mmHg 92%
    01:00 +19°C° 0 mm 1 mps 638 mmHg 94%
    02:00 +19°C° 0 mm 1 mps 638 mmHg 95%
    03:00 +18°C° 0 mm 1 mps 638 mmHg 95%
    04:00 +18°C° 0 mm 1 mps 638 mmHg 95%
    05:00 +18°C° 0 mm 1 mps 637 mmHg 95%
    06:00 +19°C° 0 mm 1 mps 638 mmHg 91%
    07:00 +21°C° 0 mm 1 mps 639 mmHg 87%
    08:00 +21°C° 0 mm 2 mps 640 mmHg 83%
    09:00 +24°C° 0 mm 2 mps 640 mmHg 73%
    10:00 +25°C° 0 mm 2 mps 641 mmHg 64%
    11:00 +27°C° 0 mm 3 mps 641 mmHg 55%
    12:00 +27°C° 0.1 mm 3 mps 641 mmHg 55%
    13:00 +28°C° 0.1 mm 3 mps 640 mmHg 54%
    14:00 +28°C° 0.1 mm 3 mps 640 mmHg 53%
    15:00 +27°C° 0.1 mm 3 mps 639 mmHg 57%
    16:00 +27°C° 0.1 mm 3 mps 639 mmHg 60%
    17:00 +26°C° 0.1 mm 3 mps 638 mmHg 64%
    18:00 +24°C° 0 mm 2 mps 638 mmHg 69%
    19:00 +21°C° 0 mm 2 mps 638 mmHg 74%
    20:00 +19°C° 0 mm 2 mps 638 mmHg 79%
    21:00 +19°C° 0 mm 2 mps 639 mmHg 81%
    22:00 +18°C° 0 mm 2 mps 639 mmHg 84%
    23:00 +17°C° 0 mm 2 mps 639 mmHg 87%

    Day after tomorrow, 19 February, Wednesday

    Time Temperature Precipitation Wind Pressure Humidity
    00:00 +17°C° 0 mm 2 mps 638 mmHg 85%
    01:00 +18°C° 0 mm 1 mps 638 mmHg 83%
    02:00 +16°C° 0 mm 1 mps 638 mmHg 81%
    03:00 +16°C° 0 mm 1 mps 638 mmHg 82%
    04:00 +16°C° 0 mm 1 mps 638 mmHg 84%
    05:00 +16°C° 0 mm 1 mps 638 mmHg 85%
    06:00 +17°C° 0 mm 2 mps 638 mmHg 79%
    07:00 +19°C° 0 mm 3 mps 639 mmHg 72%
    08:00 +20°C° 0 mm 3 mps 640 mmHg 66%
    09:00 +22°C° 0 mm 3 mps 640 mmHg 60%
    10:00 +24°C° 0 mm 3 mps 640 mmHg 54%
    11:00 +26°C° 0 mm 3 mps 641 mmHg 48%
    12:00 +27°C° 0 mm 3 mps 640 mmHg 46%
    13:00 +27°C° 0 mm 2 mps 640 mmHg 43%
    14:00 +28°C° 0 mm 2 mps 640 mmHg 40%
    15:00 +28°C° 0 mm 2 mps 639 mmHg 45%
    16:00 +27°C° 0 mm 1 mps 639 mmHg 49%
    17:00 +27°C° 0 mm 1 mps 638 mmHg 53%
    18:00 +24°C° 0 mm 1 mps 638 mmHg 60%
    19:00 +22°C° 0 mm 1 mps 638 mmHg 67%
    20:00 +20°C° 0 mm 1 mps 638 mmHg 74%
    21:00 +20°C° 0 mm 1 mps 638 mmHg 79%
    22:00 +19°C° 0 mm 1 mps 638 mmHg 84%
    23:00 +19°C° 0 mm 1 mps 638 mmHg 89%

    20 February, Thursday

    Time Temperature Precipitation Wind Pressure Humidity
    00:00 +19°C° 0 mm 1 mps 638 mmHg 90%
    01:00 +19°C° 0 mm 1 mps 638 mmHg 92%
    02:00 +18°C° 0 mm 1 mps 638 mmHg 93%
    03:00 +18°C° 0 mm 1 mps 638 mmHg 93%
    04:00 +18°C° 0 mm 1 mps 637 mmHg 93%
    05:00 +18°C° 0 mm 1 mps 637 mmHg 93%
    06:00 +19°C° 0 mm 1 mps 638 mmHg 87%
    07:00 +20°C° 0 mm 1 mps 639 mmHg 81%
    08:00 +22°C° 0 mm 1 mps 639 mmHg 75%
    09:00 +24°C° 0 mm 1 mps 640 mmHg 67%
    10:00 +26°C° 0 mm 1 mps 640 mmHg 60%
    11:00 +28°C° 0 mm 1 mps 641 mmHg 52%
    12:00 +29°C° 0 mm 1 mps 640 mmHg 49%
    13:00 +29°C° 0 mm 1 mps 639 mmHg 47%
    14:00 +30°C° 0 mm 1 mps 639 mmHg 44%
    15:00 +29°C° 0.1 mm 1 mps 638 mmHg 50%
    16:00 +28°C° 0.1 mm 1 mps 638 mmHg 56%
    17:00 +27°C° 0.1 mm 1 mps 637 mmHg 61%
    18:00 +25°C° 0.1 mm 1 mps 637 mmHg 69%
    19:00 +23°C° 0.1 mm 1 mps 637 mmHg 76%
    20:00 +21°C° 0.1 mm 1 mps 637 mmHg 84%
    21:00 +20°C° 0 mm 1 mps 637 mmHg 85%
    22:00 +20°C° 0 mm 1 mps 637 mmHg 86%
    23:00 +20°C° 0 mm 1 mps 637 mmHg 87%

    21 February, Friday

    Time Temperature Precipitation Wind Pressure Humidity
    00:00 +20°C° 0 mm 1 mps 637 mmHg 88%
    01:00 +17°C° 0 mm 0 mps 637 mmHg 89%
    02:00 +17°C° 0 mm 0 mps 637 mmHg 90%
    03:00 +17°C° 0 mm 0 mps 637 mmHg 90%
    04:00 +17°C° 0 mm 0 mps 637 mmHg 90%
    05:00 +17°C° 0 mm 0 mps 637 mmHg 91%
    06:00 +18°C° 0 mm 0 mps 638 mmHg 87%
    07:00 +21°C° 0 mm 1 mps 638 mmHg 83%
    08:00 +23°C° 0 mm 1 mps 639 mmHg 79%
    15:00 +29°C° 0.1 mm 1 mps 638 mmHg 46%
    16:00 +29°C° 0.1 mm 1 mps 638 mmHg 49%
    17:00 +27°C° 0.1 mm 0 mps 638 mmHg 52%
    18:00 +26°C° 0 mm 1 mps 637 mmHg 60%
    19:00 +24°C° 0 mm 1 mps 637 mmHg 67%
    20:00 +22°C° 0 mm 1 mps 637 mmHg 75%
    21:00 +21°C° 0 mm 1 mps 637 mmHg 76%
    22:00 +20°C° 0 mm 2 mps 637 mmHg 77%
    23:00 +19°C° 0 mm 2 mps 638 mmHg 78%

    22 February, Saturday

    Time Temperature Precipitation Wind Pressure Humidity
    00:00 +19°C° 0 mm 2 mps 637 mmHg 83%
    01:00 +19°C° 0 mm 2 mps 637 mmHg 88%
    02:00 +18°C° 0 mm 2 mps 637 mmHg 93%
    03:00 +18°C° 0 mm 2 mps 637 mmHg 93%
    04:00 +18°C° 0 mm 2 mps 637 mmHg 93%
    05:00 +18°C° 0 mm 2 mps 637 mmHg 94%
    06:00 +19°C° 0 mm 2 mps 637 mmHg 90%
    07:00 +20°C° 0 mm 2 mps 638 mmHg 87%
    08:00 +21°C° 0 mm 3 mps 639 mmHg 83%
    09:00 +24°C° 0 mm 2 mps 639 mmHg 75%
    10:00 +26°C° 0 mm 2 mps 640 mmHg 66%
    11:00 +28°C° 0 mm 1 mps 640 mmHg 57%
    12:00 +28°C° 0.5 mm 1 mps 639 mmHg 57%
    13:00 +29°C° 0.5 mm 1 mps 639 mmHg 57%
    14:00 +29°C° 0.5 mm 1 mps 638 mmHg 57%
    15:00 +28°C° 1.6 mm 1 mps 637 mmHg 63%
    16:00 +27°C° 1.6 mm 1 mps 637 mmHg 69%
    17:00 +26°C° 1.6 mm 1 mps 636 mmHg 75%
    18:00 +24°C° 1 mm 1 mps 636 mmHg 78%
    19:00 +23°C° 1 mm 1 mps 636 mmHg 81%
    20:00 +20°C° 1 mm 0 mps 637 mmHg 85%
    21:00 +19°C° 1 mm 0 mps 637 mmHg 86%
    22:00 +21°C° 1 mm 1 mps 637 mmHg 87%
    23:00 +21°C° 1 mm 1 mps 637 mmHg 89%
    Show more